Wind_Speed
14 14 14 14 14 14 14 14 14 14 13 13 12 12 12 12 11 11 11 10 10 9 8 8 8 7 5 5 6 8 10 12 13 14 14 10 7 6 7 9 11 13 14 13 13 14 15 16 17 18 18 18 17 15 14 14 12 11 10 9 10 9 8 8 7 7 6 6 7 8 9 10 10 9 9 10 10 9 8 8 7 6 6 6 7 9 10 9
16 16 16 15 15 15 15 15 14 14 13 13 12 11 11 11 11 12 12 11 11 10 10 10 9 8 6 5 6 7 8 11 14 15 13 11 10 10 10 11 12 14 14 14 14 15 17 18 18 19 19 19 18 15 15 14 12 11 10 11 12 10 8 8 7 7 8 7 8 8 9 10 11 10 8 10 10 9 8 7 7 6 5 4 5 6 8 10
18 18 18 17 17 16 16 15 15 14 14 12 11 10 9 10 10 11 12 12 11 10 10 10 11 10 7 5 5 7 8 10 13 15 14 12 13 12 10 11 14 15 16 18 19 19 20 21 22 21 21 21 18 16 15 13 12 11 11 13 14 11 9 8 6 7 8 8 8 8 7 9 11 11 10 9 10 9 8 6 6 6 5 3 3 4 6 9
20 20 20 20 19 18 18 17 16 16 15 13 12 10 9 9 10 11 12 12 12 11 10 11 12 12 10 7 5 6 7 9 11 13 14 13 15 14 10 11 15 16 18 19 19 20 21 23 24 22 22 21 18 16 14 14 13 11 12 14 14 12 10 9 7 7 8 8 8 7 7 8 10 11 11 9 9 9 8 7 5 5 5 3 3 4 6 7
21 21 21 21 21 20 20 19 18 18 17 15 13 12 11 10 10 11 12 12 12 12 11 11 12 13 12 9 6 5 7 8 9 11 14 14 16 17 13 13 14 16 17 18 17 18 18 20 21 20 20 18 16 15 14 16 14 12 14 14 14 13 11 11 9 9 8 8 8 7 8 8 9 11 12 11 9 9 8 7 5 5 4 3 2 4 6 7
22 22 22 22 22 22 21 21 20 20 19 18 16 14 13 12 12 12 12 12 12 12 12 12 12 13 13 12 8 6 6 7 9 11 13 14 17 18 16 15 14 14 15 16 16 16 15 16 18 18 18 16 15 15 16 17 15 15 16 14 16 16 14 13 11 9 7 7 8 8 8 8 10 12 13 12 12 10 8 7 6 5 4 3 2 4 5 7
22 22 22 22 22 22 22 22 21 21 21 20 18 16 15 14 14 14 13 12 12 12 13 13 13 13 14 14 11 8 6 5 8 10 11 12 16 18 18 17 15 13 13 14 15 14 12 14 16 18 19 18 17 17 18 17 17 18 17 15 17 17 17 15 12 10 8 6 8 8 8 8 10 12 13 14 15 13 9 8 6 5 4 2 2 3 4 6
22 22 22 22 22 22 22 22 22 22 22 22 20 18 17 17 17 16 15 13 12 12 13 14 14 13 15 15 14 10 5 6 8 8 10 11 14 17 18 18 17 15 14 14 16 16 14 13 17 20 20 19 19 20 19 18 18 19 18 18 18 18 17 14 11 10 8 6 7 7 6 7 9 12 13 13 15 15 12 8 6 5 3 1 1 3 4 4
22 22 21 21 21 21 22 22 22 22 23 23 21 20 19 19 20 19 17 15 14 13 14 15 15 14 15 15 16 13 6 7 9 7 10 11 12 15 18 19 18 17 15 15 17 17 16 16 20 22 21 21 22 22 20 19 20 20 21 20 19 17 13 11 10 9 7 6 6 7 6 6 8 11 12 12 13 15 14 10 7 5 3 2 1 3 4 4
22 22 22 21 21 21 21 21 21 22 23 23 22 21 21 21 22 20 19 17 15 14 14 15 15 14 15 16 17 14 8 10 11 8 9 11 12 14 17 19 19 19 18 16 16 16 16 19 23 24 25 26 26 25 21 20 22 23 23 21 19 16 11 10 10 9 7 5 6 6 5 5 7 9 10 11 12 14 15 13 10 7 5 3 1 3 4 3
23 22 22 22 22 22 22 21 21 22 23 22 22 21 22 23 23 22 21 20 18 16 16 16 16 15 16 17 18 14 9 12 13 9 10 11 12 13 14 18 20 20 19 18 17 18 20 23 27 28 27 27 27 27 23 23 25 26 24 22 20 17 12 11 10 10 5 3 5 6 6 8 9 8 8 10 12 13 15 14 12 9 6 4 2 2 4 4
25 24 24 23 23 23 22 22 22 23 23 22 21 21 23 23 23 23 23 22 20 19 18 18 17 16 17 18 18 14 11 14 15 12 11 11 12 12 12 16 19 21 21 20 20 21 23 26 28 27 26 26 27 27 25 26 27 27 25 23 21 17 14 13 12 11 5 1 5 6 9 11 12 11 9 10 11 13 15 15 14 11 8 5 3 1 3 4
28 28 27 26 25 24 24 23 23 24 24 23 21 21 22 23 23 23 24 24 23 21 20 20 19 18 18 19 17 14 13 15 18 16 13 10 12 12 12 13 17 20 21 22 22 23 25 27 27 27 27 27 27 26 25 27 28 27 25 23 21 18 15 15 13 12 7 3 4 6 12 13 14 14 12 12 12 13 14 15 15 14 10 7 4 1 2 4
32 31 30 29 28 27 26 25 25 25 25 24 23 22 23 23 23 23 24 24 24 23 21 21 21 20 20 21 17 13 14 17 20 19 14 10 12 14 13 13 15 19 21 22 23 24 25 27 28 29 29 29 27 25 25 27 27 27 24 23 22 18 17 17 15 13 10 6 4 7 15 16 16 16 15 14 14 13 14 15 16 15 12 9 6 3 0 2
35 34 34 33 32 31 29 28 27 27 27 26 25 24 24 24 23 23 23 24 24 23 23 22 22 22 22 23 19 14 15 19 20 19 14 12 13 15 15 14 14 16 19 21 23 24 25 26 28 28 28 28 28 26 25 25 25 25 23 23 22 18 18 18 16 14 12 8 5 11 18 18 17 17 15 15 15 14 14 15 16 16 14 11 7 5 2 1
37 37 36 36 35 35 33 31 30 30 30 29 28 27 27 26 24 24 24 24 24 24 24 23 23 23 23 25 23 17 17 20 20 17 15 15 16 16 16 15 13 14 16 19 22 24 25 26 27 27 28 28 27 27 26 24 24 23 21 21 20 18 20 20 18 16 15 10 9 17 21 19 18 17 16 16 15 15 14 15 15 15 14 12 9 6 4 3
39 39 39 38 38 38 36 35 34 33 33 32 31 30 30 29 28 26 25 24 24 24 25 24 24 24 24 26 26 22 20 21 21 18 17 18 17 18 17 16 16 15 15 17 19 22 24 25 25 26 28 28 27 27 25 22 20 18 16 18 19 19 22 22 19 17 17 12 12 20 23 20 19 18 17 17 16 15 14 14 14 14 13 11 9 7 5 4
41 41 41 40 40 40 39 38 37 36 36 35 34 33 33 32 31 29 28 26 25 25 26 25 25 24 24 27 28 25 22 22 23 22 20 20 19 19 19 19 18 17 16 16 17 19 20 22 24 26 28 28 26 23 20 17 16 16 15 16 19 21 23 21 19 19 19 14 14 21 24 22 21 20 19 18 17 16 14 13 13 13 13 11 9 7 5 4
42 42 42 42 42 42 41 40 39 39 39 38 37 35 35 35 34 33 31 29 27 27 27 25 25 25 25 27 29 28 25 24 24 24 23 22 21 20 19 20 19 19 18 16 16 16 17 20 22 24 23 23 22 20 18 17 18 19 18 19 21 23 24 22 21 21 20 16 15 21 25 24 23 23 21 20 19 17 16 15 13 12 12 10 9 7 5 4
45 44 44 44 44 44 44 43 42 41 41 41 40 39 37 37 37 36 34 33 32 30 29 26 25 26 27 28 30 29 28 25 24 25 26 24 22 21 20 19 19 19 18 17 17 16 17 18 17 16 17 19 21 21 21 22 23 22 21 21 22 24 25 24 23 22 23 19 15 20 25 25 25 25 24 22 21 20 18 17 14 12 11 10 8 6 4 3
47 47 46 46 46 46 46 45 44 43 43 43 43 42 41 39 39 38 36 35 35 33 31 29 27 26 27 30 31 31 31 28 25 26 27 26 24 22 20 19 18 17 17 19 19 19 18 12 8 11 15 19 22 24 25 24 25 25 23 21 21 23 24 25 26 23 25 23 15 18 26 27 27 27 26 23 21 20 19 18 17 15 12 10 8 5 4 2
47 48 48 48 48 48 48 48 47 46 45 45 45 45 44 42 41 40 39 37 37 36 34 33 31 27 28 33 33 33 33 29 27 27 27 27 26 24 22 21 19 18 20 22 21 19 15 8 7 11 15 20 23 25 26 25 25 27 26 23 21 21 23 26 27 26 28 28 21 20 27 30 28 28 26 23 22 21 20 20 20 20 17 14 11 5 3 1
47 48 48 48 48 50 50 50 50 49 48 48 47 47 46 45 45 43 42 39 37 38 37 35 35 31 31 35 36 35 32 29 28 29 28 29 28 26 24 22 21 22 23 22 19 18 15 12 12 13 15 19 23 25 26 27 27 26 27 25 21 19 23 27 29 29 31 32 28 24 27 32 30 28 27 24 24 22 21 21 21 22 22 19 16 11 6 2
47 47 48 47 47 49 51 52 53 52 50 50 50 50 49 48 47 46 45 43 39 39 39 38 37 35 34 37 40 38 33 30 31 30 29 30 30 29 27 24 24 25 24 22 21 20 18 18 18 18 18 19 22 25 26 27 26 25 26 26 22 21 23 27 30 31 33 35 32 27 28 33 32 28 27 26 25 24 22 21 20 19 20 20 19 15 10 4
47 47 47 47 47 47 49 51 54 54 53 52 52 52 51 50 50 49 48 47 42 39 40 41 39 38 38 39 42 40 36 33 30 30 31 31 31 31 29 28 28 26 24 24 25 23 21 21 22 22 22 21 22 24 25 25 25 26 27 25 25 26 25 28 30 32 35 37 34 31 31 32 34 31 30 30 27 25 23 21 19 18 18 18 18 18 14 7
49 48 48 48 47 46 47 49 52 54 55 55 54 53 53 52 52 51 50 50 47 41 40 42 42 40 40 41 42 43 41 35 31 34 35 32 32 33 33 33 30 26 25 27 28 25 23 23 23 24 23 22 22 21 21 24 26 28 27 26 29 30 28 28 30 33 37 37 35 35 35 31 35 36 33 32 30 27 25 23 22 19 17 16 17 18 17 12
52 51 50 49 49 47 47 48 49 52 55 56 56 55 54 54 54 53 52 52 51 46 42 42 44 43 41 42 43 44 44 38 34 38 37 32 32 35 36 35 32 27 27 30 29 22 20 23 23 23 24 24 21 18 18 21 23 24 25 27 30 30 30 31 32 36 38 38 38 38 37 32 32 38 36 34 32 29 27 26 23 20 18 16 16 17 17 15
55 54 53 52 52 51 50 49 49 51 53 54 56 56 56 55 55 54 54 54 54 51 46 44 45 46 44 43 44 45 46 41 37 39 39 36 35 36 37 36 32 29 29 33 28 18 18 22 22 23 26 25 21 18 19 20 20 20 23 28 31 32 33 35 37 38 39 42 41 38 38 34 26 34 38 36 35 31 28 27 24 22 20 18 17 16 17 17
56 56 55 54 54 54 54 53 51 51 52 53 55 56 57 57 56 55 55 55 55 53 50 47 46 47 47 45 45 46 47 45 41 40 42 40 37 37 37 34 33 33 35 36 30 24 24 25 26 29 29 27 25 24 24 23 21 20 23 29 33 33 35 39 40 40 41 43 40 36 38 35 22 28 39 40 36 31 27 26 25 24 22 20 19 18 18 18
59 59 58 57 57 57 57 57 56 54 54 54 55 55 56 57 57 56 57 56 54 54 53 50 48 48 49 48 46 46 47 47 45 42 44 43 39 39 37 35 36 37 38 38 34 31 30 30 31 32 28 27 29 30 28 27 25 25 26 30 34 36 37 40 41 42 43 40 36 34 37 37 25 25 36 38 33 29 26 26 27 26 24 22 20 19 18 19
64 63 61 59 59 59 58 59 59 58 57 56 56 56 56 57 58 58 59 56 53 55 56 54 52 50 50 49 47 46 46 47 47 45 45 45 43 42 41 40 40 40 41 41 38 34 33 34 34 30 26 27 30 30 30 30 29 28 29 31 35 37 38 40 40 42 40 33 30 30 36 39 25 19 30 33 29 30 29 27 28 27 25 24 22 20 18 18
68 67 65 63 62 61 60 60 60 60 60 59 59 58 57 58 59 59 58 55 54 56 57 56 55 52 51 51 50 48 46 46 47 47 47 47 46 44 42 42 41 40 40 39 37 35 34 36 35 30 28 29 28 28 29 31 31 29 30 33 35 36 37 37 36 35 31 25 22 22 31 32 16 11 22 27 27 29 29 28 29 28 27 26 24 22 20 18
74 72 70 67 66 64 62 62 61 61 61 61 61 61 61 61 60 58 57 56 56 58 58 57 55 53 52 51 51 50 48 46 46 47 47 48 49 46 43 42 42 41 40 36 35 35 35 36 36 35 32 30 28 26 26 28 29 28 29 32 34 34 33 30 28 28 27 26 21 19 25 22 7 8 18 24 25 25 27 29 29 29 29 28 26 24 23 21
79 77 75 73 71 69 66 64 63 62 62 62 62 62 64 64 61 59 59 59 59 59 58 57 56 54 53 52 51 50 49 47 46 48 48 48 50 48 46 45 45 45 42 39 38 37 37 37 36 34 31 28 28 25 24 26 28 28 29 32 34 34 31 27 25 25 26 27 24 21 20 13 7 10 17 22 24 23 25 28 30 31 30 30 29 27 25 23
80 80 79 77 74 73 70 68 66 64 64 63 63 64 65 64 63 63 63 62 61 59 58 57 56 55 54 53 52 51 50 48 46 47 49 49 49 48 48 47 46 46 44 43 43 40 40 39 35 32 32 32 31 28 27 29 29 30 32 35 35 32 30 30 28 27 28 28 26 21 16 12 9 9 13 17 20 21 23 27 30 32 32 32 31 29 27 24
76 77 78 77 76 74 72 70 69 67 66 65 65 65 65 64 64 66 66 64 63 62 60 58 57 56 56 54 53 52 52 50 48 47 48 50 49 48 48 49 48 48 47 45 44 42 42 40 36 37 38 38 36 33 33 33 31 31 33 33 31 29 31 34 32 30 30 31 28 20 15 15 14 11 11 13 16 18 20 25 30 31 31 32 31 29 28 25
68 68 70 70 71 71 71 70 69 68 67 67 66 66 65 65 66 67 68 68 66 64 63 61 59 59 58 57 55 53 53 52 50 49 49 51 52 50 49 50 51 51 49 48 47 45 43 40 38 40 39 38 38 38 38 38 36 36 33 29 29 32 35 37 35 33 32 30 26 18 15 15 15 13 12 12 16 18 18 22 26 29 30 30 29 28 28 26
59 59 58 58 59 62 63 64 65 66 67 67 67 67 66 66 67 68 69 70 69 68 66 64 62 61 60 60 57 55 54 54 53 51 51 52 53 53 51 51 52 52 51 50 49 47 45 43 42 42 40 39 42 43 44 45 43 40 34 32 35 37 36 37 36 32 30 27 20 14 12 11 10 11 12 14 16 18 20 22 25 27 28 27 27 26 26 26
53 52 51 50 49 50 53 55 57 59 62 64 65 67 68 67 67 68 70 71 71 71 70 68 66 64 63 62 60 57 55 56 56 55 54 54 54 54 54 53 53 53 53 52 50 48 47 46 45 43 42 43 46 48 50 48 45 41 38 39 41 39 36 37 36 32 30 27 19 13 10 8 9 11 12 15 16 17 20 22 24 27 27 26 26 25 25 25
50 48 47 45 43 43 44 46 48 51 55 58 60 63 66 66 66 67 69 71 72 73 73 72 70 67 65 64 63 61 58 57 59 59 58 57 56 56 56 55 54 54 54 53 52 50 49 49 49 46 44 46 49 50 50 48 44 41 40 41 40 39 38 38 37 34 32 29 22 15 8 6 11 14 14 15 17 18 19 21 23 25 26 27 26 26 25 25
49 46 45 43 41 39 38 39 41 43 46 50 55 58 60 63 64 65 68 70 71 73 74 74 73 71 68 67 65 63 61 60 60 61 61 61 60 59 58 57 56 55 54 54 54 53 51 51 51 49 48 49 50 49 47 45 44 42 41 41 39 38 39 39 38 34 31 28 24 19 11 10 10 11 12 14 17 20 21 22 23 24 25 27 28 27 26 25
48 46 44 41 39 36 34 34 35 36 38 42 47 51 54 57 60 62 65 69 70 72 74 75 75 74 72 70 68 66 64 63 62 62 63 63 63 61 60 59 59 57 56 55 55 55 53 52 52 51 51 51 50 48 46 45 44 44 44 43 42 43 43 42 38 32 30 30 27 24 18 15 11 10 12 13 16 19 21 23 24 24 26 27 28 29 28 27
46 45 43 39 35 33 30 30 30 30 32 34 37 43 48 51 55 57 60 65 68 70 73 74 75 75 74 73 71 69 67 65 64 64 64 65 65 64 63 61 61 60 59 57 56 56 55 55 54 53 52 52 52 50 48 47 46 47 47 46 46 47 46 42 36 33 34 35 31 28 24 18 13 14 14 14 16 18 20 22 24 25 27 28 29 30 30 28
44 42 40 36 32 29 27 27 27 27 27 28 29 34 39 44 49 53 55 60 65 68 70 73 75 75 75 75 73 72 70 67 66 66 66 66 67 67 65 64 63 63 62 60 59 58 57 58 56 55 55 56 55 54 53 51 51 51 50 48 49 47 44 42 39 39 41 38 33 32 26 18 15 16 16 16 18 19 19 21 23 25 26 28 30 30 30 30
41 36 34 32 28 25 25 25 25 25 24 24 25 27 31 36 42 47 50 54 60 64 68 71 74 75 75 76 75 74 72 70 69 69 68 68 68 68 68 67 66 65 65 64 62 60 60 60 60 59 58 59 59 59 57 55 55 55 52 51 50 47 45 44 43 44 43 38 35 33 26 19 18 19 18 18 19 19 20 20 20 21 23 25 27 29 31 33
35 29 27 26 24 22 22 23 23 23 22 19 19 21 24 29 35 40 44 48 53 59 64 68 71 73 74 75 75 74 74 73 72 71 70 70 70 70 70 69 68 68 67 66 65 63 62 62 62 61 60 60 59 58 57 55 56 56 54 52 51 48 47 46 47 48 44 39 39 35 27 21 20 21 21 20 19 19 20 20 20 20 20 22 24 27 30 33
30 26 23 21 21 20 21 22 23 22 21 17 14 13 15 21 27 33 37 41 44 50 57 63 67 69 72 74 75 75 75 74 74 74 73 72 71 71 71 71 71 70 69 69 68 66 65 65 64 62 61 61 60 58 57 57 57 58 56 54 52 50 49 49 51 50 45 43 42 35 28 25 22 22 22 22 21 21 21 21 21 21 20 21 22 24 26 28
27 24 21 19 18 18 20 22 23 22 20 18 15 11 11 15 19 25 30 34 36 42 50 56 60 64 68 71 73 73 74 75 76 76 76 74 73 73 74 73 73 73 72 71 70 69 68 67 66 65 63 62 62 61 60 59 58 59 58 56 54 52 51 51 53 50 46 47 43 33 31 30 25 23 23 21 21 23 23 23 23 23 22 22 22 23 24 26
25 22 20 19 18 18 19 20 22 20 18 17 16 13 11 12 14 18 26 31 32 35 42 48 52 57 62 65 68 71 73 75 76 77 78 77 76 76 76 76 75 75 74 73 72 71 70 70 69 67 66 65 64 63 62 61 60 60 59 57 55 53 53 52 52 50 49 49 43 36 37 36 29 25 24 23 23 24 25 26 25 25 26 25 25 26 25 25
26 22 19 18 18 19 20 21 21 19 17 16 15 14 12 10 9 12 21 32 33 32 35 40 45 50 53 57 62 67 72 74 76 78 79 79 79 78 78 78 78 77 76 75 74 73 72 72 71 70 68 67 66 65 64 63 62 61 60 58 56 54 54 53 52 50 50 49 44 40 41 39 31 27 25 24 26 26 27 28 27 27 29 28 27 27 26 25
27 23 19 18 18 19 20 21 20 18 16 15 14 14 13 11 8 9 13 26 34 34 33 35 39 42 46 50 56 63 70 72 73 77 79 80 81 81 80 80 80 79 78 77 76 75 75 73 72 72 71 69 68 67 65 65 64 63 61 59 57 55 54 54 53 51 50 50 45 42 44 40 32 28 26 26 27 28 29 29 29 29 30 30 29 28 27 26
27 24 20 18 19 20 21 21 19 17 15 15 14 13 13 12 8 8 7 15 29 36 36 34 35 38 41 43 48 57 65 68 70 74 78 80 81 82 82 81 81 81 80 79 79 77 76 75 74 74 73 71 70 69 67 66 66 65 62 59 58 56 55 55 53 52 51 50 47 46 47 41 31 29 31 30 30 30 30 30 31 31 32 33 32 30 29 28
Wind_Direction
290 291 291 292 293 295 296 297 299 300 301 302 304 306 307 308 308 304 301 300 302 309 314 314 305 295 275 255 257 259 252 243 234 227 224 225 234 233 209 202 200 201 203 198 192 188 189 198 204 208 210 210 211 204 192 193 193 184 175 174 165 157 168 167 163 177 183 189 194 184 171 169 166 162 170 177 177 174 166 153 145 150 164 174 169 160 156 157
288 287 287 288 288 289 289 291 293 293 294 295 297 300 303 304 303 301 297 294 292 296 304 309 305 303 296 267 251 256 257 248 239 235 229 220 222 225 216 206 196 197 198 195 195 193 192 197 203 207 210 212 211 206 202 201 199 190 179 182 175 163 178 179 172 191 193 189 195 192 179 170 160 148 154 167 162 158 162 156 147 147 160 181 184 175 172 166
288 287 286 285 285 285 285 286 286 287 287 287 289 292 297 299 299 297 294 291 289 286 291 298 299 301 302 290 258 249 255 253 246 241 233 220 218 225 222 209 201 198 196 196 198 197 197 198 201 203 207 211 208 205 206 206 205 194 181 185 180 171 188 192 181 196 200 195 197 195 187 177 164 148 144 150 144 138 143 146 146 146 153 187 216 204 193 184
289 287 287 285 284 284 283 283 282 281 281 280 280 281 286 290 292 291 289 288 287 284 282 286 290 294 299 299 280 251 247 251 251 246 238 223 219 224 219 209 207 206 204 206 206 205 207 204 200 201 205 207 203 204 206 207 208 196 191 189 181 176 186 192 189 196 196 195 198 193 191 186 173 157 145 140 131 124 124 127 138 145 155 185 223 220 212 210
291 289 287 286 284 283 282 282 280 278 276 275 274 275 279 281 282 282 283 283 283 282 279 278 278 284 291 293 292 266 247 249 251 250 242 226 220 222 217 211 214 213 213 216 216 216 218 213 206 203 207 207 203 206 208 209 204 195 199 193 184 181 180 187 191 196 193 191 197 195 193 187 176 163 151 141 127 119 118 114 119 130 145 168 207 232 230 227
292 290 289 286 285 283 281 280 279 277 275 273 271 272 274 275 274 273 274 277 279 279 277 275 272 274 281 284 288 276 261 256 248 248 245 231 223 223 219 216 218 219 218 221 221 221 224 219 211 205 208 209 206 210 210 207 198 196 201 194 189 185 182 190 193 195 194 191 199 200 199 189 172 162 154 142 123 115 119 117 114 117 126 146 189 245 254 241
293 292 290 288 286 284 281 279 277 276 274 272 270 270 270 270 269 267 268 269 272 275 273 272 269 267 272 275 278 275 275 267 249 246 249 239 228 227 224 219 219 220 219 223 223 222 225 218 208 203 205 204 203 211 212 204 198 200 202 198 194 190 189 195 195 196 198 201 208 206 202 188 168 157 152 142 125 114 114 121 119 120 125 145 190 233 253 245
293 292 291 290 288 286 283 280 277 275 273 271 270 268 267 267 265 263 263 264 265 269 269 270 268 265 266 269 271 270 275 271 255 245 247 242 232 228 226 222 219 219 216 217 220 219 216 207 202 202 203 199 199 209 211 203 203 203 203 205 203 200 199 194 192 200 201 208 213 208 200 181 162 152 148 142 131 117 108 110 114 114 117 131 216 238 241 235
291 291 290 289 289 287 285 283 280 276 273 272 270 268 266 264 263 262 261 260 260 261 265 267 265 264 262 264 265 262 267 268 258 248 244 242 237 230 225 222 218 218 215 211 214 214 207 197 199 203 201 199 201 209 209 203 206 208 207 211 211 210 207 192 192 196 193 204 209 202 194 176 159 150 145 139 130 117 104 95 89 89 90 90 214 239 239 228
289 289 288 288 288 287 286 285 282 279 275 273 271 268 266 264 263 263 262 259 257 256 258 261 262 262 260 260 259 258 266 266 257 250 247 243 240 235 227 222 217 216 215 211 210 208 203 197 200 203 203 202 202 208 208 202 208 213 214 216 218 220 213 198 195 186 180 192 196 186 174 161 148 142 140 133 124 114 102 89 77 70 70 79 150 218 230 229
287 287 286 286 286 286 286 285 284 281 278 276 273 270 266 264 263 263 263 261 258 254 253 255 257 257 257 257 255 256 263 263 258 247 244 245 241 239 232 224 218 215 213 211 207 204 202 201 205 207 206 206 206 208 205 201 209 216 219 219 223 226 213 203 200 188 179 176 182 172 155 151 138 127 129 128 122 114 105 94 80 67 61 68 107 202 230 240
285 284 284 284 284 284 284 285 284 282 281 279 276 273 268 265 263 263 263 262 259 254 250 251 251 252 254 255 253 255 256 257 260 249 238 245 247 245 239 230 222 216 213 210 207 205 203 206 212 212 210 211 211 211 206 204 210 216 220 220 225 228 210 203 203 196 200 181 181 172 157 155 142 127 121 120 116 113 108 98 85 73 63 59 76 184 235 249
282 282 281 281 281 281 281 282 282 281 281 280 278 275 271 268 265 263 262 261 259 255 250 248 248 247 250 253 251 251 250 249 254 251 240 241 250 251 246 237 227 220 215 211 208 207 206 210 213 212 213 215 215 216 211 210 214 218 221 219 223 225 210 205 201 198 207 183 175 173 163 159 148 137 128 119 111 108 106 99 87 76 68 60 63 88 233 250
279 279 279 278 278 277 277 278 278 278 278 278 277 274 272 270 268 264 262 260 259 256 251 247 246 244 247 252 248 242 244 246 249 250 246 239 246 251 246 238 231 224 219 215 212 212 211 212 213 213 216 217 218 219 215 215 220 221 221 219 221 222 213 210 202 200 206 191 187 181 166 157 151 145 137 126 116 110 106 98 87 75 67 61 56 55 14 262
278 277 276 276 276 275 274 274 274 274 274 274 274 273 271 270 268 265 262 260 259 256 252 247 244 243 245 250 247 235 235 245 249 251 251 241 239 245 244 238 234 231 226 220 217 216 215 216 217 219 219 218 222 223 219 221 225 226 222 217 219 219 216 217 209 206 209 199 185 175 167 160 156 151 143 133 124 118 111 101 89 75 66 60 53 44 28 319
278 277 276 275 274 273 272 271 271 271 271 271 270 270 269 269 267 264 262 259 258 256 253 248 244 242 242 247 248 237 231 241 249 250 250 243 237 240 244 243 238 234 233 229 224 221 220 219 220 222 221 220 225 227 224 226 230 231 226 217 215 215 214 218 216 212 212 200 173 171 169 164 162 155 146 138 129 125 118 108 96 80 68 61 54 42 25 358
278 277 276 275 274 273 272 270 269 269 269 269 268 266 266 267 266 264 262 259 257 255 253 249 246 242 241 245 248 243 232 235 246 247 244 242 240 239 242 243 240 234 232 231 230 229 227 224 222 223 223 223 227 229 228 230 234 239 231 217 214 212 213 219 219 218 219 204 174 174 171 166 164 158 151 144 136 132 124 116 106 90 75 62 54 44 25 5
276 276 275 275 274 273 271 270 269 268 267 267 267 265 264 264 264 263 262 260 256 254 252 249 246 244 242 244 247 246 237 231 239 244 240 239 241 240 240 241 241 239 235 232 232 233 233 232 227 225 225 226 227 231 236 237 238 244 239 220 214 213 214 220 223 224 227 211 179 177 176 171 168 161 156 150 140 138 132 124 115 101 86 67 54 44 28 11
276 275 274 273 273 272 271 270 268 267 267 266 265 265 264 262 261 260 260 259 257 254 252 250 247 246 244 244 245 245 242 233 232 239 241 239 240 242 242 242 243 243 239 235 235 235 234 233 231 230 231 235 235 236 243 240 232 237 241 229 218 214 215 220 225 231 237 223 187 181 182 176 172 167 162 157 152 151 145 133 122 112 99 80 58 46 34 16
277 276 275 274 272 271 270 269 267 266 265 265 265 264 263 262 261 259 258 257 256 254 253 251 247 246 245 244 245 245 243 238 232 235 241 241 240 240 241 242 242 242 242 240 238 235 233 233 233 235 237 240 238 237 241 237 228 229 235 233 224 217 216 221 228 237 245 235 200 188 189 182 178 174 170 169 166 159 151 142 136 126 113 99 74 51 34 15
278 276 276 275 273 272 270 268 267 265 264 264 264 263 262 261 261 260 257 255 255 253 252 251 246 246 248 246 244 244 242 238 233 233 237 240 238 236 236 239 240 241 242 240 236 232 232 232 224 222 226 229 230 231 235 235 230 228 229 232 228 219 215 221 230 237 247 244 220 201 196 188 185 181 178 179 170 161 158 154 149 144 136 123 103 71 43 21
278 276 275 274 274 273 270 268 266 264 263 262 261 262 262 261 260 259 257 256 255 253 250 251 248 244 246 248 245 243 242 241 237 235 237 239 239 236 233 235 238 237 236 235 233 231 227 206 188 201 211 220 223 224 226 228 229 228 228 228 225 217 212 218 227 231 240 244 236 221 206 195 192 187 183 178 169 167 168 165 162 159 151 139 133 122 88 54
279 277 275 274 273 273 271 269 267 264 263 261 260 260 259 259 259 258 257 255 254 255 251 248 248 245 243 248 248 244 242 242 239 236 236 239 240 238 233 231 233 233 234 235 235 232 220 201 202 206 207 214 219 221 221 221 221 221 224 225 220 215 213 215 221 224 231 238 238 231 213 200 197 193 183 177 175 176 175 173 173 166 155 148 147 143 120 113
281 279 277 275 274 273 271 270 268 265 263 262 260 258 257 257 257 257 256 254 252 254 253 248 246 245 242 245 247 246 242 240 240 237 235 236 238 239 235 230 229 230 232 234 233 229 217 209 212 213 211 212 216 219 219 219 217 215 218 219 216 217 217 213 218 222 227 234 237 237 223 206 201 197 186 185 185 181 180 180 178 171 161 154 147 137 124 128
283 281 279 277 275 274 272 270 268 266 264 263 260 259 257 256 256 255 255 254 250 249 253 251 246 242 241 242 246 248 245 239 241 242 236 234 236 237 236 231 227 226 229 231 233 229 218 213 213 215 217 216 218 220 220 220 217 214 214 214 215 219 220 216 216 220 226 232 235 240 235 212 203 202 194 195 193 185 186 180 173 176 171 159 147 138 135 139
285 283 281 279 276 275 274 271 269 267 265 263 261 259 258 256 255 254 253 253 251 247 248 251 250 244 240 241 244 248 248 241 238 241 236 231 232 234 234 234 228 222 223 229 232 228 221 217 215 217 220 221 224 224 223 224 220 216 211 211 217 219 221 220 218 220 226 231 232 238 243 225 207 206 202 201 199 192 189 178 170 177 173 165 157 146 141 141
284 283 282 280 278 276 274 272 271 269 266 264 262 260 259 257 255 254 253 253 251 248 245 245 249 248 243 240 241 244 247 243 237 239 239 233 231 233 233 234 231 224 222 228 229 224 222 224 221 221 223 225 227 225 227 229 226 221 212 212 219 219 218 220 220 222 225 230 232 235 244 240 215 207 207 205 203 198 190 177 172 176 172 170 167 155 148 145
282 281 281 280 278 277 274 272 270 269 268 265 262 260 259 258 256 254 254 253 251 249 247 243 244 246 245 242 241 242 244 242 238 239 241 237 233 234 233 233 232 227 226 230 227 219 222 226 224 222 223 224 224 223 224 228 228 223 212 213 219 219 218 219 220 222 224 229 233 233 239 245 223 205 209 209 206 202 190 179 176 174 174 175 173 167 158 151
280 279 278 277 277 276 274 272 269 267 267 266 264 261 259 258 256 255 253 252 251 250 249 245 242 243 244 242 240 241 242 241 238 237 240 239 235 235 235 232 230 227 227 229 223 214 216 219 218 219 219 216 214 215 217 220 221 216 210 212 216 218 218 220 221 222 225 232 237 232 235 245 230 200 208 213 209 202 190 183 180 176 179 180 178 176 167 157
281 278 276 274 274 273 272 271 268 266 265 264 263 262 260 258 256 255 253 250 250 250 250 248 243 241 242 242 240 239 240 241 239 236 237 239 236 235 235 231 228 226 226 228 222 213 214 217 219 220 218 212 211 213 215 216 215 211 208 209 214 217 218 221 222 223 229 239 243 233 231 245 240 199 206 215 207 197 191 188 184 179 182 182 180 181 173 163
283 280 277 274 272 270 269 268 267 265 263 261 261 260 259 258 256 254 252 250 250 250 248 248 245 241 241 242 241 239 238 239 239 236 236 238 236 234 233 231 229 228 227 227 223 215 213 218 222 223 219 215 216 216 217 219 217 212 208 208 213 218 219 221 222 224 232 245 249 235 230 243 242 191 199 213 203 194 194 190 186 182 183 183 182 182 177 169
284 282 279 276 273 270 268 266 265 263 262 260 259 258 257 256 254 253 251 250 250 248 247 247 246 243 241 241 242 241 238 236 237 237 235 236 237 236 235 236 236 235 234 234 231 223 219 220 223 223 220 219 221 220 220 223 223 218 213 213 217 221 223 225 225 230 241 253 257 241 232 242 246 175 189 203 200 196 195 191 189 187 186 185 183 180 179 178
286 283 281 278 275 272 269 266 264 262 260 258 257 255 254 253 254 253 251 250 249 247 246 246 246 245 242 240 241 241 239 236 235 236 235 233 234 234 233 234 235 236 237 237 235 232 229 226 224 223 220 221 223 222 224 228 228 226 222 223 227 230 233 237 237 241 249 256 261 251 239 242 237 164 179 189 195 195 192 193 193 192 189 186 184 183 186 188
287 284 282 279 276 273 270 267 264 261 259 257 255 253 252 252 253 252 250 248 247 246 246 245 245 245 243 240 239 239 239 237 233 234 235 233 231 231 230 230 230 231 231 230 229 228 228 227 227 227 226 226 226 224 226 230 228 226 226 228 233 237 242 249 251 250 254 258 261 256 243 225 175 162 169 178 190 192 192 194 195 196 193 188 188 191 195 197
289 286 282 280 277 274 270 267 264 261 259 256 254 252 250 250 250 249 248 247 246 245 245 244 244 244 243 240 238 237 237 237 234 231 233 234 232 229 228 229 229 229 229 228 227 225 224 224 223 224 224 224 226 223 224 228 225 222 223 224 229 234 241 246 248 249 252 254 256 255 238 222 217 205 183 181 187 191 193 193 195 199 198 194 196 197 200 203
291 288 284 281 278 275 271 267 263 260 257 255 253 251 249 247 246 245 246 245 245 244 243 242 242 242 242 240 237 235 235 236 234 230 229 232 232 227 225 226 228 229 228 228 227 225 225 224 219 218 217 216 219 219 221 226 226 225 224 224 228 231 234 240 243 244 248 250 252 247 228 228 235 214 192 188 186 192 195 191 196 203 202 203 204 203 203 205
294 291 287 283 280 276 272 267 263 259 256 253 251 249 248 245 244 243 243 243 243 242 241 240 239 239 239 239 236 233 232 233 233 230 227 228 230 228 224 223 225 227 227 227 226 224 224 221 218 219 216 214 217 217 218 221 222 222 222 222 226 226 227 233 237 238 241 246 249 245 232 233 227 198 187 185 178 185 193 192 196 202 204 208 210 209 208 206
300 296 292 287 282 277 273 269 263 258 254 251 249 247 245 243 242 240 240 240 240 240 239 238 237 236 237 237 236 233 230 230 230 229 227 226 227 229 227 224 224 226 226 226 225 224 222 218 215 216 214 212 215 216 218 218 218 217 216 215 220 223 224 229 234 236 240 246 252 251 241 232 209 186 188 191 181 182 191 194 197 200 206 211 212 213 212 210
307 304 299 295 289 282 275 270 265 259 254 250 247 244 242 241 240 239 237 237 237 237 237 236 235 234 234 235 234 232 229 228 228 228 228 227 226 227 228 226 224 225 225 226 225 224 222 219 215 213 211 211 214 216 218 218 218 216 215 217 220 222 223 227 233 235 238 245 248 245 239 225 197 181 183 193 194 193 194 198 201 202 205 210 209 210 212 214
311 308 304 300 297 291 283 275 269 264 257 251 246 243 241 238 237 236 235 234 234 235 235 235 234 233 232 232 232 232 229 226 226 227 227 227 226 225 226 227 226 225 225 224 224 223 222 220 217 213 211 213 216 219 219 220 220 218 219 222 225 227 227 228 231 233 235 239 241 241 233 192 185 182 177 186 193 196 198 199 202 204 204 206 206 205 206 210
312 310 307 305 303 299 292 285 278 272 264 256 249 244 241 237 234 233 232 232 231 232 233 233 232 232 231 230 230 230 228 225 224 225 226 227 227 225 225 226 226 226 224 223 223 223 221 221 219 215 214 216 219 220 220 221 222 221 222 225 227 231 233 233 233 235 239 241 244 246 221 166 171 180 180 191 193 194 197 197 200 202 202 203 203 203 205 206
314 311 309 308 305 302 298 293 287 281 274 264 255 248 243 238 235 231 230 230 229 229 230 230 230 230 229 228 228 227 227 225 223 223 224 225 227 226 224 224 225 226 224 222 222 222 222 221 220 217 216 218 220 220 220 220 222 222 222 222 224 227 230 232 233 235 241 243 244 244 222 194 202 207 193 200 201 198 200 198 199 201 201 202 202 203 205 204
316 312 311 310 307 304 302 298 295 291 285 276 264 253 246 241 236 231 229 228 227 226 227 228 228 228 228 227 226 225 225 224 222 221 222 224 225 226 225 223 224 225 224 222 221 221 222 222 220 218 218 219 221 221 221 221 222 223 223 222 223 225 226 229 229 229 234 235 236 237 224 203 206 210 199 203 209 206 204 201 200 202 202 203 203 203 204 203
319 315 313 311 309 307 304 302 301 300 296 289 275 259 248 242 237 232 227 226 226 225 225 226 226 226 226 225 224 223 222 221 221 221 221 222 223 225 225 223 222 224 224 223 222 221 221 221 221 219 219 220 221 221 222 222 223 224 224 224 225 226 226 229 229 227 230 231 231 233 226 202 195 205 203 204 207 208 208 205 204 204 204 205 205 203 201 203
320 316 314 312 310 309 308 308 307 307 306 298 283 266 251 242 237 232 227 225 225 225 224 224 224 224 224 224 223 222 220 219 219 220 219 220 222 223 224 224 222 223 223 224 223 222 221 222 222 220 220 222 223 224 224 224 225 227 226 226 227 228 228 229 231 233 234 235 235 237 231 206 195 204 208 208 210 210 211 210 208 207 208 210 209 204 202 204
322 318 315 313 313 313 314 316 316 316 317 308 290 274 257 243 235 231 226 223 223 225 224 224 224 223 222 222 221 220 218 217 217 218 218 218 219 221 223 224 223 223 223 224 223 223 223 223 223 222 222 223 225 227 227 227 229 231 230 230 231 231 231 232 234 237 237 237 236 238 237 221 206 208 213 214 215 214 213 214 213 212 212 214 214 211 210 209
326 323 319 316 318 321 323 324 324 324 327 324 313 294 271 252 238 228 224 221 220 222 224 224 224 224 222 221 220 219 217 216 215 216 217 216 217 219 221 223 223 223 223 223 223 223 223 224 224 223 223 223 224 227 228 228 230 232 233 233 233 233 234 235 238 240 240 240 239 237 238 232 216 211 214 214 216 219 218 216 216 217 216 216 219 218 218 217
332 329 325 322 324 327 329 328 327 328 329 332 332 322 298 274 249 227 217 215 215 217 221 223 224 225 224 222 220 218 217 215 214 214 215 215 215 217 219 221 222 223 223 223 223 224 224 224 225 225 224 224 224 225 227 228 229 232 233 234 234 234 235 237 240 242 243 244 244 240 239 236 222 212 215 214 214 218 220 220 218 218 220 220 221 222 221 221
339 335 330 329 329 329 331 330 328 327 327 331 333 330 317 298 269 233 210 203 205 212 218 221 223 224 225 224 222 219 216 214 213 213 214 215 214 215 217 219 221 222 223 224 224 224 224 224 225 226 225 225 225 225 226 228 229 231 233 233 234 235 236 237 240 242 244 246 246 242 240 237 227 217 216 215 215 214 218 223 221 219 222 222 221 222 222 222
344 341 336 334 333 333 334 333 329 328 329 330 331 331 327 318 296 255 217 200 198 205 213 218 221 222 224 226 224 221 218 214 213 213 213 213 213 214 215 217 220 221 222 224 224 224 224 225 225 226 226 226 226 226 226 227 229 230 232 233 234 235 236 238 239 241 244 246 246 244 244 241 232 224 218 216 219 217 218 224 224 222 224 224 223 224 224 224
348 344 340 337 335 334 335 334 331 331 333 332 329 329 329 327 317 292 241 209 203 207 209 211 216 220 223 225 226 224 219 215 213 213 212 212 213 213 214 216 218 220 221 223 224 224 224 225 226 227 227 227 227 228 227 227 228 229 230 232 233 234 237 239 241 241 243 245 246 245 246 243 237 230 223 218 218 220 220 223 226 226 227 228 227 226 226 228
351 347 342 339 337 335 336 336 335 336 335 332 329 328 329 328 320 310 281 221 212 216 215 210 210 213 218 223 226 226 223 218 214 213 212 212 212 213 214 215 217 219 220 222 223 224 224 225 226 227 228 227 228 229 228 228 229 230 229 230 232 234 236 238 240 241 242 244 244 243 244 244 239 234 229 221 216 218 221 223 225 227 229 232 233 230 228 229
Height
5882 5881 5881 5880 5879 5879 5878 5878 5877 5877 5876 5876 5876 5876 5876 5875 5875 5874 5873 5873 5872 5872 5872 5871 5871 5871 5871 5871 5871 5870 5870 5871 5871 5872 5873 5874 5875 5876 5876 5877 5878 5878 5879 5880 5882 5883 5884 5885 5886 5888 5889 5890 5891 5893 5895 5896 5897 5898 5899 5899 5900 5901 5901 5900 5900 5900 5900 5900 5900 5899 5899 5900 5901 5901 5902 5902 5902 5902 5902 5902 5902 5903 5904 5904 5904 5904 5904 5905
5881 5880 5880 5879 5878 5878 5877 5877 5876 5876 5875 5875 5875 5875 5875 5874 5874 5873 5872 5872 5871 5871 5871 5870 5870 5870 5870 5870 5870 5870 5869 5869 5870 5870 5872 5874 5874 5874 5875 5876 5877 5878 5879 5880 5881 5882 5883 5884 5885 5886 5888 5889 5890 5892 5893 5895 5896 5897 5898 5898 5899 5900 5900 5900 5900 5899 5899 5899 5899 5899 5899 5899 5900 5901 5901 5901 5901 5901 5901 5901 5901 5903 5903 5904 5904 5904 5904 5904
5879 5879 5878 5878 5877 5877 5876 5876 5875 5875 5874 5874 5874 5874 5874 5873 5873 5872 5871 5871 5870 5870 5870 5869 5869 5868 5869 5869 5869 5869 5869 5868 5868 5869 5871 5872 5873 5873 5874 5875 5876 5876 5877 5878 5878 5880 5881 5881 5882 5884 5886 5887 5889 5891 5892 5894 5895 5896 5897 5897 5898 5899 5900 5899 5899 5899 5899 5899 5899 5899 5899 5899 5899 5899 5900 5900 5899 5899 5900 5900 5901 5902 5903 5904 5904 5904 5904 5904
5878 5877 5877 5876 5876 5875 5875 5874 5874 5873 5873 5873 5873 5873 5873 5872 5872 5871 5870 5870 5869 5869 5869 5868 5868 5867 5867 5868 5868 5868 5868 5867 5867 5868 5869 5870 5871 5872 5873 5874 5874 5875 5875 5876 5876 5877 5878 5879 5881 5882 5884 5886 5888 5890 5891 5893 5894 5895 5895 5896 5897 5898 5899 5899 5899 5899 5898 5898 5898 5898 5898 5898 5898 5898 5898 5899 5899 5899 5899 5899 5900 5901 5902 5903 5904 5904 5904 5905
5876 5875 5875 5874 5874 5873 5873 5873 5872 5872 5872 5871 5871 5872 5872 5871 5871 5870 5869 5869 5868 5868 5868 5867 5867 5866 5866 5866 5867 5867 5867 5867 5867 5866 5867 5868 5869 5870 5871 5872 5873 5874 5874 5875 5876 5876 5877 5879 5881 5882 5883 5885 5888 5889 5890 5891 5892 5894 5894 5895 5896 5897 5898 5898 5898 5898 5898 5898 5898 5897 5897 5897 5898 5897 5897 5898 5898 5898 5898 5899 5900 5901 5901 5902 5903 5904 5904 5905
5873 5873 5873 5872 5872 5871 5871 5871 5870 5870 5870 5870 5870 5870 5870 5870 5869 5868 5868 5868 5867 5867 5866 5866 5866 5865 5865 5865 5866 5866 5866 5866 5866 5865 5865 5866 5867 5868 5869 5870 5871 5872 5873 5874 5875 5876 5877 5879 5880 5882 5883 5885 5887 5888 5888 5889 5891 5892 5892 5893 5894 5895 5897 5897 5897 5898 5898 5898 5897 5897 5897 5897 5897 5897 5897 5896 5896 5897 5898 5898 5899 5900 5901 5902 5903 5903 5904 5904
5871 5871 5870 5870 5869 5869 5869 5869 5868 5868 5868 5868 5868 5869 5868 5868 5867 5866 5866 5866 5866 5866 5865 5865 5864 5864 5864 5863 5864 5864 5865 5865 5864 5864 5864 5865 5866 5866 5867 5869 5870 5871 5872 5873 5874 5876 5877 5878 5880 5881 5882 5883 5885 5886 5886 5888 5890 5890 5891 5892 5893 5894 5895 5896 5897 5898 5898 5898 5897 5897 5897 5897 5897 5897 5897 5896 5895 5896 5898 5898 5899 5900 5901 5901 5902 5902 5903 5904
5869 5869 5868 5867 5867 5867 5866 5866 5866 5866 5865 5865 5866 5866 5866 5866 5865 5864 5864 5865 5865 5864 5864 5863 5863 5863 5863 5862 5862 5863 5864 5864 5863 5863 5863 5863 5864 5864 5865 5867 5868 5869 5871 5872 5873 5874 5876 5877 5878 5879 5880 5882 5883 5884 5885 5887 5888 5889 5890 5891 5892 5893 5894 5896 5897 5898 5898 5897 5897 5897 5897 5897 5897 5896 5897 5896 5895 5895 5897 5898 5899 5899 5900 5901 5901 5902 5902 5903
5867 5867 5866 5865 5865 5864 5864 5864 5863 5863 5863 5863 5864 5864 5864 5863 5862 5862 5862 5863 5863 5863 5862 5862 5862 5862 5861 5861 5861 5861 5863 5862 5862 5862 5862 5862 5862 5863 5863 5865 5866 5868 5869 5870 5871 5872 5874 5876 5876 5877 5879 5880 5881 5882 5883 5886 5887 5888 5888 5889 5890 5892 5894 5896 5897 5898 5898 5897 5897 5897 5897 5897 5897 5897 5896 5896 5895 5895 5896 5897 5898 5899 5899 5900 5900 5901 5902 5903
5865 5864 5864 5863 5863 5862 5862 5861 5861 5860 5860 5860 5861 5862 5861 5861 5860 5860 5860 5860 5861 5861 5860 5860 5860 5860 5860 5859 5859 5860 5861 5861 5861 5861 5861 5861 5861 5861 5862 5862 5864 5866 5867 5868 5869 5871 5873 5874 5874 5875 5876 5877 5878 5879 5882 5884 5885 5886 5886 5888 5890 5891 5894 5896 5896 5897 5897 5897 5897 5896 5897 5897 5897 5897 5897 5896 5896 5895 5895 5896 5897 5898 5898 5899 5899 5900 5901 5902
5862 5861 5861 5861 5860 5860 5859 5859 5859 5858 5857 5858 5859 5859 5859 5858 5858 5858 5858 5858 5859 5859 5858 5858 5858 5858 5858 5858 5857 5858 5859 5859 5859 5860 5860 5859 5859 5860 5860 5861 5862 5863 5865 5866 5868 5869 5870 5871 5871 5872 5873 5875 5876 5878 5880 5882 5883 5884 5885 5887 5888 5890 5893 5895 5896 5896 5897 5897 5896 5896 5897 5897 5897 5898 5898 5897 5896 5895 5894 5895 5897 5898 5898 5898 5899 5900 5901 5902
5859 5858 5858 5857 5857 5857 5856 5856 5856 5855 5855 5855 5856 5856 5855 5855 5855 5855 5855 5855 5856 5856 5856 5856 5856 5856 5856 5855 5856 5857 5858 5857 5857 5858 5858 5858 5858 5858 5859 5859 5860 5861 5862 5864 5866 5866 5867 5868 5869 5871 5873 5874 5875 5876 5878 5880 5880 5882 5883 5885 5887 5889 5892 5894 5894 5895 5896 5896 5896 5896 5896 5896 5897 5897 5898 5897 5896 5895 5895 5895 5896 5897 5898 5898 5899 5899 5900 5901
5855 5855 5854 5854 5854 5853 5853 5853 5853 5852 5852 5852 5853 5853 5852 5852 5852 5853 5853 5852 5853 5853 5854 5854 5854 5854 5853 5853 5854 5855 5855 5855 5855 5855 5857 5857 5857 5857 5857 5858 5858 5859 5860 5862 5863 5864 5865 5866 5868 5870 5871 5871 5873 5874 5876 5877 5879 5880 5882 5884 5886 5887 5890 5892 5893 5894 5895 5896 5896 5895 5896 5896 5896 5896 5896 5897 5896 5896 5895 5895 5895 5897 5897 5898 5898 5899 5899 5900
5852 5851 5851 5850 5850 5850 5850 5850 5850 5849 5849 5849 5850 5850 5849 5849 5849 5850 5849 5849 5850 5850 5851 5851 5851 5852 5851 5850 5851 5853 5853 5853 5852 5853 5855 5856 5856 5855 5856 5856 5857 5857 5859 5860 5861 5862 5863 5864 5865 5866 5867 5869 5871 5873 5875 5876 5877 5878 5880 5883 5884 5886 5888 5889 5891 5892 5893 5894 5895 5895 5895 5895 5895 5895 5895 5895 5896 5896 5896 5895 5895 5896 5897 5897 5898 5898 5899 5899
5848 5847 5847 5847 5846 5846 5846 5847 5846 5846 5845 5846 5846 5846 5846 5846 5846 5847 5846 5847 5847 5847 5848 5848 5849 5849 5849 5848 5849 5851 5851 5850 5850 5851 5853 5854 5854 5853 5853 5854 5855 5856 5857 5858 5859 5860 5861 5862 5863 5864 5866 5868 5869 5871 5873 5874 5875 5876 5878 5880 5882 5884 5886 5887 5889 5890 5891 5892 5893 5894 5894 5894 5894 5894 5894 5894 5895 5895 5895 5895 5895 5895 5896 5897 5897 5898 5898 5898
5843 5843 5842 5842 5842 5841 5842 5842 5842 5842 5841 5842 5842 5842 5842 5842 5843 5843 5843 5844 5844 5844 5844 5845 5846 5846 5847 5846 5846 5848 5849 5848 5848 5849 5851 5851 5851 5852 5852 5853 5854 5855 5855 5856 5857 5858 5859 5861 5862 5863 5865 5866 5867 5869 5871 5872 5873 5874 5876 5879 5881 5883 5884 5885 5886 5888 5889 5891 5892 5892 5893 5893 5894 5893 5893 5893 5894 5894 5894 5894 5894 5894 5895 5896 5897 5897 5897 5898
5838 5838 5837 5837 5837 5837 5837 5838 5838 5838 5837 5837 5838 5838 5838 5838 5839 5839 5840 5840 5841 5841 5841 5842 5843 5843 5844 5843 5843 5845 5846 5846 5846 5847 5848 5848 5849 5850 5850 5851 5852 5853 5853 5854 5855 5856 5857 5859 5861 5862 5863 5864 5866 5868 5869 5870 5872 5873 5875 5878 5880 5882 5882 5883 5885 5886 5887 5889 5890 5891 5892 5892 5893 5893 5892 5893 5893 5893 5894 5894 5894 5894 5894 5896 5896 5897 5897 5898
5833 5833 5832 5832 5831 5831 5832 5832 5833 5833 5832 5832 5833 5833 5834 5834 5834 5835 5836 5837 5838 5837 5837 5839 5839 5840 5841 5840 5840 5841 5843 5844 5844 5844 5845 5846 5847 5847 5848 5849 5850 5851 5852 5853 5853 5854 5855 5857 5858 5859 5860 5862 5864 5866 5867 5869 5872 5873 5874 5877 5879 5880 5881 5882 5883 5883 5884 5887 5888 5889 5890 5891 5891 5891 5891 5892 5892 5892 5892 5893 5893 5893 5893 5895 5896 5897 5897 5898
5828 5827 5827 5826 5826 5826 5826 5827 5827 5828 5827 5827 5827 5828 5829 5829 5830 5831 5832 5833 5834 5834 5834 5835 5836 5837 5837 5837 5837 5838 5839 5841 5841 5841 5842 5843 5844 5845 5846 5847 5847 5848 5850 5851 5852 5852 5853 5854 5855 5857 5859 5861 5863 5865 5866 5869 5872 5872 5873 5875 5877 5878 5880 5881 5881 5881 5882 5885 5886 5888 5889 5889 5889 5890 5890 5890 5890 5890 5890 5891 5892 5892 5892 5893 5895 5896 5897 5897
5821 5821 5821 5820 5820 5819 5819 5820 5821 5822 5822 5821 5822 5823 5823 5824 5824 5825 5827 5828 5829 5830 5830 5832 5833 5833 5833 5833 5833 5834 5835 5837 5838 5839 5839 5840 5841 5842 5843 5844 5845 5846 5848 5849 5850 5850 5851 5851 5853 5856 5858 5860 5862 5863 5865 5867 5870 5871 5872 5873 5875 5876 5878 5879 5879 5879 5880 5882 5885 5885 5887 5888 5888 5888 5888 5887 5888 5889 5889 5889 5890 5891 5892 5892 5894 5895 5896 5897
5815 5815 5815 5815 5814 5813 5813 5814 5814 5815 5816 5816 5816 5816 5817 5818 5819 5820 5822 5823 5824 5825 5826 5827 5829 5830 5830 5829 5829 5830 5831 5833 5835 5836 5836 5837 5838 5839 5841 5842 5843 5844 5845 5846 5846 5847 5849 5851 5852 5854 5856 5857 5859 5860 5861 5864 5867 5868 5870 5871 5872 5875 5877 5878 5878 5878 5878 5879 5882 5883 5884 5885 5886 5886 5886 5887 5888 5888 5888 5888 5888 5889 5890 5891 5892 5894 5895 5896
5809 5808 5808 5808 5808 5806 5806 5806 5807 5808 5809 5810 5810 5810 5811 5812 5813 5814 5815 5818 5818 5819 5822 5823 5824 5827 5827 5824 5824 5825 5826 5830 5832 5832 5833 5833 5834 5836 5838 5839 5841 5842 5842 5842 5843 5845 5848 5850 5851 5851 5852 5853 5855 5856 5858 5860 5862 5865 5867 5868 5870 5873 5875 5876 5876 5876 5875 5875 5879 5880 5880 5882 5884 5884 5885 5886 5887 5887 5887 5887 5887 5887 5887 5888 5890 5892 5894 5895
5802 5802 5801 5802 5801 5800 5799 5799 5799 5801 5802 5802 5803 5803 5804 5805 5806 5807 5809 5812 5814 5814 5816 5819 5819 5822 5823 5820 5819 5821 5824 5827 5828 5828 5829 5830 5831 5833 5834 5836 5838 5838 5838 5840 5842 5844 5846 5848 5848 5848 5849 5850 5851 5853 5854 5856 5858 5861 5863 5865 5869 5872 5873 5873 5874 5874 5873 5873 5875 5877 5878 5880 5882 5883 5884 5885 5885 5885 5886 5886 5886 5886 5885 5886 5887 5889 5892 5894
5795 5795 5794 5795 5795 5793 5792 5792 5791 5792 5794 5794 5795 5796 5797 5799 5799 5801 5802 5805 5809 5809 5809 5812 5815 5817 5818 5815 5813 5815 5821 5823 5823 5825 5826 5826 5827 5828 5830 5833 5834 5834 5836 5838 5839 5841 5843 5844 5845 5845 5846 5847 5848 5849 5851 5853 5855 5858 5860 5863 5867 5869 5870 5871 5871 5871 5871 5871 5873 5875 5875 5877 5879 5882 5883 5882 5882 5883 5884 5885 5886 5887 5886 5885 5885 5886 5889 5893
5788 5787 5787 5788 5788 5786 5786 5785 5783 5784 5786 5786 5787 5788 5790 5791 5792 5794 5795 5796 5802 5805 5803 5805 5808 5810 5812 5811 5809 5811 5815 5818 5820 5821 5821 5823 5824 5824 5826 5828 5829 5831 5834 5835 5835 5837 5840 5841 5842 5843 5843 5845 5845 5847 5849 5851 5853 5855 5857 5861 5863 5865 5867 5868 5869 5870 5869 5869 5871 5872 5871 5874 5877 5879 5879 5879 5880 5881 5882 5883 5885 5886 5886 5885 5884 5884 5886 5890
5780 5780 5780 5780 5780 5780 5779 5778 5776 5776 5777 5777 5779 5781 5782 5784 5784 5786 5788 5789 5793 5799 5799 5799 5800 5803 5806 5807 5806 5806 5808 5814 5817 5814 5814 5819 5820 5820 5821 5822 5825 5829 5831 5831 5831 5833 5837 5838 5839 5840 5841 5842 5843 5845 5847 5848 5850 5852 5855 5858 5858 5860 5864 5866 5867 5867 5865 5866 5869 5868 5867 5869 5873 5874 5876 5877 5878 5879 5880 5881 5883 5885 5886 5886 5885 5884 5884 5887
5772 5772 5772 5772 5772 5773 5772 5771 5770 5768 5768 5768 5770 5773 5774 5775 5777 5779 5781 5781 5784 5790 5794 5795 5793 5795 5799 5801 5802 5801 5802 5808 5812 5808 5810 5815 5816 5816 5816 5818 5822 5826 5827 5826 5827 5831 5835 5835 5837 5838 5839 5840 5842 5844 5845 5846 5847 5850 5853 5855 5855 5857 5861 5862 5863 5862 5862 5864 5864 5865 5864 5864 5868 5871 5873 5874 5875 5876 5878 5880 5882 5883 5885 5886 5885 5884 5883 5884
5764 5763 5765 5764 5763 5763 5764 5764 5763 5761 5760 5760 5761 5763 5765 5767 5769 5771 5773 5773 5776 5780 5785 5788 5788 5788 5791 5794 5796 5797 5797 5802 5805 5805 5805 5809 5811 5811 5812 5815 5819 5823 5823 5822 5825 5831 5832 5832 5834 5835 5835 5837 5840 5843 5843 5844 5845 5847 5850 5851 5852 5854 5856 5857 5857 5858 5859 5858 5858 5861 5862 5860 5863 5868 5870 5870 5872 5874 5876 5878 5880 5882 5884 5884 5885 5884 5883 5883
5756 5755 5756 5756 5755 5754 5754 5754 5755 5754 5753 5753 5753 5754 5756 5758 5760 5763 5764 5766 5769 5772 5776 5780 5783 5783 5784 5787 5789 5791 5792 5795 5799 5800 5800 5802 5806 5807 5809 5813 5815 5817 5817 5818 5822 5826 5826 5827 5829 5828 5830 5833 5836 5838 5839 5840 5842 5844 5846 5846 5847 5849 5850 5852 5852 5854 5855 5852 5852 5858 5859 5856 5859 5864 5866 5866 5869 5874 5876 5878 5879 5880 5882 5882 5883 5883 5883 5882
5747 5746 5747 5747 5746 5745 5744 5743 5744 5746 5746 5745 5745 5746 5747 5749 5751 5752 5754 5759 5763 5764 5767 5771 5774 5776 5777 5779 5782 5784 5786 5789 5792 5795 5795 5797 5801 5803 5805 5808 5809 5810 5811 5813 5817 5820 5821 5823 5822 5823 5827 5830 5831 5832 5834 5836 5837 5839 5840 5841 5843 5844 5845 5846 5848 5851 5850 5846 5848 5855 5857 5855 5855 5859 5862 5863 5869 5874 5875 5876 5877 5878 5880 5881 5882 5883 5883 5882
5735 5734 5736 5737 5736 5735 5735 5733 5733 5735 5736 5736 5736 5738 5739 5739 5741 5742 5746 5754 5757 5756 5758 5760 5764 5768 5770 5771 5774 5777 5780 5782 5785 5788 5790 5792 5795 5797 5799 5801 5802 5804 5805 5807 5811 5815 5817 5818 5818 5821 5826 5827 5828 5829 5831 5832 5833 5835 5836 5837 5838 5839 5841 5842 5844 5846 5845 5842 5846 5853 5855 5854 5853 5856 5860 5863 5868 5871 5872 5874 5875 5877 5878 5880 5881 5882 5882 5882
5722 5722 5723 5724 5724 5724 5723 5723 5723 5723 5724 5726 5727 5729 5730 5730 5730 5734 5741 5747 5746 5746 5748 5751 5755 5759 5762 5764 5766 5769 5773 5776 5778 5781 5784 5786 5788 5792 5795 5797 5799 5801 5802 5805 5809 5812 5814 5814 5816 5820 5822 5823 5825 5827 5828 5828 5830 5832 5833 5834 5834 5835 5837 5838 5840 5842 5841 5842 5845 5850 5854 5852 5851 5855 5859 5862 5866 5868 5870 5872 5873 5875 5877 5878 5879 5880 5881 5881
5707 5708 5709 5710 5710 5711 5711 5712 5712 5713 5714 5715 5716 5718 5719 5719 5722 5728 5734 5735 5734 5736 5739 5742 5746 5750 5754 5757 5759 5762 5765 5769 5772 5774 5776 5779 5782 5786 5790 5792 5794 5796 5798 5803 5806 5809 5810 5811 5812 5815 5818 5820 5822 5824 5825 5826 5828 5830 5832 5832 5831 5832 5834 5836 5839 5840 5840 5842 5844 5848 5852 5850 5850 5854 5857 5860 5863 5866 5868 5870 5871 5873 5875 5876 5877 5878 5879 5879
5690 5692 5694 5694 5694 5696 5698 5699 5699 5701 5702 5703 5705 5706 5707 5710 5716 5720 5721 5721 5724 5728 5730 5734 5738 5741 5744 5749 5752 5755 5757 5760 5765 5767 5769 5772 5775 5779 5782 5784 5787 5789 5793 5797 5799 5802 5805 5806 5809 5813 5817 5819 5820 5822 5824 5824 5826 5827 5829 5830 5829 5830 5833 5835 5838 5839 5839 5840 5842 5846 5849 5848 5849 5853 5856 5858 5861 5864 5866 5868 5869 5871 5873 5874 5875 5876 5877 5878
5674 5674 5676 5677 5677 5680 5683 5684 5686 5688 5689 5691 5692 5693 5696 5702 5706 5707 5708 5710 5715 5719 5722 5726 5729 5731 5735 5740 5744 5747 5749 5752 5757 5760 5762 5765 5768 5773 5776 5778 5781 5784 5787 5790 5793 5796 5798 5800 5806 5810 5813 5815 5816 5819 5820 5819 5821 5823 5824 5824 5825 5829 5832 5833 5835 5836 5837 5838 5839 5843 5845 5846 5848 5852 5855 5857 5860 5862 5864 5865 5867 5869 5871 5872 5873 5874 5875 5877
5658 5656 5657 5659 5660 5661 5664 5668 5670 5673 5675 5677 5679 5681 5686 5691 5692 5693 5697 5701 5704 5709 5713 5716 5719 5722 5725 5730 5735 5739 5742 5745 5748 5752 5755 5757 5760 5765 5768 5772 5774 5777 5781 5784 5788 5791 5793 5797 5802 5804 5805 5808 5811 5813 5814 5814 5817 5818 5819 5821 5825 5829 5830 5829 5831 5833 5834 5834 5835 5839 5842 5844 5847 5850 5852 5855 5858 5860 5862 5863 5865 5867 5869 5870 5871 5873 5874 5876
5646 5643 5642 5642 5643 5643 5645 5649 5653 5656 5659 5662 5664 5668 5673 5675 5678 5681 5685 5689 5693 5697 5702 5706 5709 5712 5715 5720 5725 5730 5734 5738 5740 5743 5747 5750 5752 5756 5761 5765 5767 5770 5775 5778 5781 5785 5789 5794 5797 5798 5801 5805 5807 5808 5808 5808 5810 5812 5816 5821 5823 5824 5824 5824 5826 5829 5830 5831 5833 5837 5839 5841 5844 5847 5850 5853 5855 5858 5860 5862 5864 5865 5867 5868 5870 5872 5873 5875
5633 5631 5629 5628 5628 5629 5629 5631 5634 5638 5642 5645 5649 5653 5657 5660 5664 5668 5673 5678 5682 5685 5690 5694 5698 5702 5706 5710 5716 5721 5726 5730 5732 5735 5738 5742 5745 5748 5753 5757 5760 5764 5768 5772 5776 5780 5784 5788 5791 5792 5796 5800 5800 5800 5800 5800 5803 5808 5814 5816 5815 5816 5819 5820 5822 5825 5827 5829 5832 5835 5837 5839 5842 5845 5848 5850 5852 5855 5858 5860 5862 5864 5865 5867 5869 5870 5872 5873
5623 5621 5618 5616 5615 5616 5616 5617 5618 5621 5624 5628 5632 5636 5641 5646 5651 5654 5660 5665 5668 5672 5678 5682 5687 5693 5697 5701 5706 5711 5716 5720 5723 5727 5730 5733 5738 5742 5746 5750 5754 5758 5762 5766 5770 5775 5779 5783 5785 5788 5792 5793 5793 5793 5793 5795 5800 5805 5809 5808 5808 5812 5816 5817 5819 5823 5826 5828 5831 5833 5835 5837 5839 5842 5845 5847 5849 5851 5854 5856 5859 5861 5863 5865 5867 5868 5870 5872
5616 5614 5611 5607 5606 5605 5605 5606 5606 5607 5610 5613 5616 5620 5625 5632 5636 5640 5645 5651 5655 5660 5665 5670 5676 5682 5687 5692 5696 5701 5706 5710 5714 5718 5721 5725 5730 5735 5739 5742 5746 5751 5756 5760 5764 5769 5774 5777 5780 5784 5786 5787 5786 5787 5789 5794 5798 5802 5804 5805 5806 5810 5812 5813 5815 5819 5822 5825 5829 5831 5833 5835 5837 5839 5841 5843 5845 5847 5849 5852 5854 5857 5859 5862 5863 5865 5867 5869
5609 5607 5604 5600 5599 5598 5596 5596 5597 5597 5598 5599 5602 5606 5611 5616 5621 5626 5630 5636 5643 5648 5652 5658 5664 5670 5676 5682 5686 5691 5696 5700 5704 5709 5713 5718 5722 5726 5731 5735 5739 5744 5749 5754 5758 5762 5766 5770 5775 5779 5780 5781 5782 5785 5789 5793 5796 5799 5801 5803 5805 5808 5809 5810 5812 5816 5820 5823 5826 5829 5832 5834 5835 5838 5839 5841 5842 5844 5846 5848 5850 5853 5855 5858 5860 5863 5864 5867
5602 5599 5598 5595 5593 5591 5590 5589 5589 5589 5589 5589 5590 5594 5598 5602 5607 5613 5617 5623 5629 5634 5639 5645 5651 5658 5665 5671 5676 5681 5685 5689 5695 5700 5705 5709 5713 5718 5723 5728 5732 5736 5741 5746 5750 5755 5760 5764 5769 5773 5775 5776 5778 5782 5786 5789 5791 5794 5795 5798 5800 5801 5802 5804 5810 5816 5819 5820 5823 5827 5829 5831 5834 5836 5838 5839 5840 5841 5843 5845 5847 5850 5852 5854 5857 5859 5861 5864
5597 5592 5590 5589 5587 5586 5585 5584 5582 5582 5581 5580 5581 5583 5586 5590 5595 5601 5605 5610 5615 5621 5625 5631 5638 5645 5652 5659 5666 5671 5675 5680 5686 5691 5696 5701 5705 5709 5714 5720 5725 5728 5733 5738 5743 5748 5753 5757 5762 5767 5770 5772 5774 5777 5781 5784 5786 5787 5789 5792 5793 5793 5797 5802 5809 5813 5813 5813 5818 5822 5825 5829 5832 5834 5836 5837 5838 5839 5841 5843 5844 5846 5849 5851 5853 5855 5858 5860
5593 5587 5584 5583 5582 5581 5580 5579 5578 5577 5575 5573 5573 5574 5576 5580 5584 5589 5594 5598 5603 5608 5613 5619 5626 5633 5641 5647 5654 5660 5665 5670 5675 5681 5687 5692 5696 5701 5706 5712 5716 5720 5725 5730 5735 5741 5745 5749 5754 5760 5763 5765 5767 5770 5772 5776 5778 5779 5783 5787 5787 5791 5796 5800 5803 5805 5804 5808 5814 5817 5821 5827 5830 5831 5833 5835 5836 5838 5839 5840 5842 5844 5845 5847 5849 5851 5854 5856
5588 5584 5579 5577 5577 5577 5576 5575 5574 5573 5571 5569 5567 5567 5569 5571 5575 5579 5585 5589 5593 5597 5602 5608 5614 5621 5628 5635 5642 5649 5655 5660 5665 5671 5677 5683 5688 5693 5698 5703 5708 5712 5717 5722 5727 5733 5737 5741 5746 5751 5755 5757 5759 5762 5765 5769 5771 5773 5778 5782 5784 5788 5793 5795 5797 5798 5800 5807 5811 5812 5818 5826 5828 5829 5830 5832 5834 5835 5837 5838 5840 5841 5843 5844 5846 5848 5850 5851
5583 5581 5577 5574 5573 5573 5572 5571 5569 5569 5568 5566 5563 5562 5562 5564 5567 5570 5576 5581 5585 5588 5593 5597 5602 5608 5615 5622 5630 5637 5643 5649 5655 5661 5668 5674 5680 5685 5689 5695 5699 5704 5709 5714 5719 5725 5729 5733 5738 5743 5749 5752 5755 5759 5763 5767 5768 5769 5774 5778 5781 5785 5788 5791 5791 5791 5796 5803 5805 5808 5817 5823 5826 5827 5828 5829 5831 5833 5834 5836 5838 5839 5840 5842 5843 5845 5846 5848
5578 5577 5575 5573 5571 5570 5569 5568 5566 5565 5564 5563 5561 5559 5559 5559 5560 5564 5568 5573 5576 5580 5584 5588 5592 5597 5604 5610 5618 5625 5631 5638 5645 5651 5658 5665 5672 5677 5682 5686 5691 5696 5701 5706 5711 5717 5722 5726 5730 5736 5742 5746 5750 5754 5758 5761 5763 5765 5769 5773 5777 5781 5784 5786 5784 5786 5794 5798 5799 5808 5815 5818 5823 5825 5825 5827 5829 5830 5832 5833 5835 5836 5838 5839 5841 5842 5844 5845
5576 5574 5572 5571 5570 5569 5568 5566 5564 5563 5562 5561 5559 5558 5557 5556 5556 5559 5563 5567 5570 5572 5576 5580 5583 5588 5593 5599 5606 5613 5620 5628 5636 5642 5648 5656 5663 5668 5673 5677 5682 5687 5692 5698 5703 5709 5714 5718 5722 5728 5734 5739 5744 5748 5751 5755 5758 5760 5763 5768 5772 5776 5779 5780 5780 5785 5791 5791 5797 5808 5812 5812 5818 5823 5823 5826 5827 5827 5829 5830 5832 5834 5835 5837 5838 5839 5840 5842
5576 5574 5571 5570 5569 5568 5567 5565 5563 5562 5561 5559 5558 5557 5556 5554 5554 5556 5558 5562 5565 5568 5569 5572 5576 5580 5585 5590 5596 5602 5609 5618 5626 5633 5640 5647 5653 5659 5663 5668 5672 5678 5684 5689 5695 5701 5706 5711 5715 5721 5727 5732 5736 5741 5745 5748 5752 5754 5757 5762 5767 5771 5773 5775 5777 5782 5785 5787 5795 5804 5804 5806 5814 5819 5820 5823 5824 5824 5825 5826 5829 5831 5832 5833 5834 5835 5837 5838
5575 5573 5571 5569 5568 5567 5565 5564 5562 5560 5559 5558 5557 5556 5555 5554 5553 5554 5555 5558 5562 5564 5565 5568 5571 5574 5577 5581 5586 5591 5599 5609 5617 5624 5632 5638 5643 5649 5654 5659 5664 5670 5675 5681 5687 5692 5697 5703 5708 5714 5720 5725 5729 5733 5738 5742 5745 5748 5752 5757 5762 5766 5768 5771 5774 5778 5780 5782 5790 5797 5797 5801 5810 5815 5817 5819 5820 5821 5822 5823 5825 5827 5828 5830 5831 5833 5834 5836
5575 5573 5571 5570 5568 5566 5564 5563 5561 5559 5558 5557 5556 5555 5554 5553 5553 5552 5553 5556 5559 5559 5561 5564 5567 5569 5572 5574 5577 5582 5590 5600 5608 5615 5622 5628 5634 5640 5646 5651 5656 5661 5667 5672 5678 5684 5689 5695 5701 5706 5711 5717 5721 5726 5731 5735 5738 5742 5747 5752 5757 5761 5764 5766 5770 5774 5776 5778 5786 5791 5790 5796 5806 5812 5814 5815 5816 5817 5819 5820 5823 5824 5825 5826 5828 5830 5832 5834
5576 5573 5571 5570 5567 5565 5564 5562 5560 5559 5558 5556 5555 5554 5553 5553 5552 5552 5552 5554 5556 5555 5556 5560 5563 5565 5568 5570 5573 5576 5582 5590 5599 5605 5611 5618 5625 5631 5637 5643 5648 5653 5659 5663 5669 5675 5681 5687 5693 5698 5703 5709 5714 5718 5724 5729 5732 5735 5741 5748 5752 5756 5760 5762 5765 5769 5771 5775 5780 5782 5784 5793 5804 5808 5808 5810 5812 5813 5815 5817 5819 5821 5822 5823 5825 5828 5830 5831